Погода в Армавире

Поиск расширенной информации на нашем сайте:

Полезная информация:

Новости сайта



02.01.2020
Опубликован Долгосрочный прогноз погоды по городам России и ближнего зарубежья на январь 2020 года.
Карты: Прогноз на январь и февраль 2020 года, Сравнение прогнозируемой аномалии приземной температуры воздуха на январь 2020 года по разным моделям.




Погода в Армавире - сегодня

Время (UTC), дата Ветер
(°,м/с) 
Видим.   Явления Облачность Т
(°С)
Тd
(°С)
f(%) Тe
(°С)
Pmin
(гПа)
dP
(гПа)
Po
(мм)
O2
(г/м3)
Тmin Tmax R s Состояние
почвы
12 03.03.21 300 (СЗ) 7-11{11}  10 км  слаб. ливневой дождь  10/10 600 м кучево-дожд. 
[Cb cap]
+2.4 +0.4 87 -1  1021.6  1.4  751  300           
15 03.03.21 290 (З) 10 км  в посл. час ливневой снег  10/10 600 м кучево-дожд. 
[Cb cap]
+1.5 -0.1 89 1023.3  1.5  752  302    +4.6     
18 03.03.21 260 (З) 10 км  {ливн. осадки}  9/9 600 м 
[Sc]
+1.4 -1.1 83 +1  1025.4  2.1  754  302           
21 03.03.21 250 (З) 10 км  слаб. ливневой снег  10/10 600 м кучево-дожд. 
[Cb cap]
+1 -1 86 -1  1026.5  755  303           
00 04.03.21 230 (ЮЗ) 10 км  {ливн. осадки}  9/9 600 м 
[Sc]
+0.7 -1.8 83 -1  1026.5  755  304           
03 04.03.21 160 (Ю) 10 км    ясно 
-1.4 -3.2 88 -1  1027.1  0.5  755  306  -1.4    0.1     
06 04.03.21 220 (ЮЗ) 10 км    ясно 
+1.5 -2.5 75 +1  1027.2  0.3  755  303  -1.8         
09 04.03.21 220 (ЮЗ) 10 км    1/1 600 м 
[Cu hum]
+6 -1 61 +5  1025.1  -1.7  754  297           
12 04.03.21 260 (З) 6{10}  10 км    6/6 600 м 
[Cu hum]
+8.5 -2.4 46 +7  1022.6  -2.3  752  294           
15 04.03.21 270 (З) 4{11}  10 км    1/1 600 м 
[Cu hum]
+5.9 -1.6 59 +4  1021.9  -0.9  752  297    +9.1       
18 04.03.21 130 (ЮВ) 10 км    ясно 
+0.8 -2.9 76 +1  1021.7  -0.6  751  302           
21 04.03.21 140 (ЮВ) 10 км    ясно 
-0.8 -3.5 82 -2  1020.7  -1.1  750  304           
00 05.03.21 140 (ЮВ) 10 км    ясно 
-1.4 -3.7 84 -2  1019.6  -1.1  750  304           
03 05.03.21 140 (ЮВ) 10 км    10/0 верхняя 
[Ci]
-2.9 -4.5 89 -2  1019.1  -0.6  749  306  -3.4         
06 05.03.21 140 (ЮВ) 10 км    3/0 верхняя 
[Cc]
+1.4 -3.1 72 +1  1018.8  749  301  -4.2         
09 05.03.21 130 (ЮВ) 10 км    10/10 600 м 
[Sc]
+6.4 -2.4 53 +7  1017.8  -0.6  749  295           
12 05.03.21 210 (ЮЗ) 10 км    10/10 600 м 
[Sc]
+9.4 -4 39 +9  1016.5  -1.1  748  292           
15 05.03.21 180 (Ю) 10 км    3/0 верхняя 
[Ci]
+8 -3.4 44 +8  1016.9  0.3  748  293    +10.5       
18 05.03.21 140 (ЮВ) 10 км    ясно 
+3.7 -2.6 63 +2  1017.4  0.1  748  298           
21 05.03.21 120 (ЮВ) 10 км    ясно 
+0.2 -3.4 77 +1  1017.6  0.1  748  302           
00 06.03.21 140 (ЮВ) 10 км    10/0 верхняя 
[Ci]
-0.1 -2.8 82 -1  1017.2  -0.4  748  302           
03 06.03.21 130 (ЮВ) 10 км    3/0 верхняя 
[Ci fib]
-1.5 -3.8 84 -1  1016.4  -0.9  747  303  -1.5         
06 06.03.21 150 (ЮВ) 10 км    10/0 средняя, верхняя 
[Ac trans|Ci]
+3.4 -2.6 65 +2  1015.6  -0.4  747  298           
09 06.03.21 230 (ЮЗ) 10 км    10/0 средняя, верхняя 
[Ac As|Cs]
+13.5 -7.9 22 +14  1013.5  -1.3  746  287           
12 06.03.21 240 (ЮЗ) 7-13{13}  10 км    10/0 средняя, верхняя 
[Ac As|Ci fib]
+16.3 -5.2 22 +16  1011.4  -1.8  745  284           
Время (UTC), дата Ветер
(°,м/с) 
Видим.   Явления Облачность Т
(°С)
Тd
(°С)
f(%) Тe
(°С)
Pmin
(гПа)
dP
(гПа)
Po
(мм)
O2
(г/м3)
Тmin Tmax R s Состояние
почвы

Для получения пояснительной информации подведите курсор к названию столбца.

ПОГОДА в Армавире - архив

Всё, что Вы хотите узнать о погоде в Армавире - удобно и подробно!

Выберите нужную дату (начиная с 1 января 2019* года) и нажмите кнопку "Найти".
Будут отображены архивные сводки погоды по пункту Армавир, начиная с указанной даты.


Отображать данные в формате CSV (для использования в таблицах Excel)


Внимание! Наш архив погоды предназначен исключительно для личного некоммерческого использования в познавательных целях. Если Вам необходимы официальные справки о состоянии погоды (для производственных, юридических, коммерческих и т.п. целей), обращайтесь в органы Росгидромета.

*Примечание: данная дата относится к архиву по метеостанциям СССР (Россия, СНГ, Балтия).
Архив по метеостанциям Зарубежной Европы и Азии (кроме Китая) хранится 10 дней, по другим регионам земного шара (Китай, Африка, Америка, Австралия, Океания) - 1 день.

Армавир - район местоположения метеостанции


Название, широта, долгота, высота метеостанции:
Армавир 45°ш. 41.1°д. 159 м над ур. моря [Российская Федерация]

Дополнительная информация

В oтличие oт бoльшинства пoгoдных сайтoв мы публикуем пoдрoбную метеoинфoрмацию в детальнoм прoфессиoнальнoм фoрмате.

Характеристики температуры и влажнoсти вoздуха измеряются на высoте 2 м в тени вдали oт зданий и деревьев.
Скoрoсть ветра измеряется на высoте 10 м (на урoвне рoста челoвека скoрoсть ветра ниже в 1.5-2 раза). Если метеoстанция нахoдится в гoрoде или в лесу, тo скoрoсть ветра занижена на 2-4 м/с пo сравнению с oткрытым местoм. Скoрoсть ветра над акватoриями крупных рек и oзёр, а также на вершинах хoлмoв на 2-5 м/с выше, чем в oбычных услoвиях.
Атмoсфернoе давление в разных тoчках местнoсти мoжет значительнo oтличаться oт давления на метеoстанции, в зависимoсти oт услoвий рельефа (при пoдъёме на 10 м давление пoнижается примернo на 1 мм рт.ст.).